Flag for Canada Weather past 2 weeks in Morden, Manitoba, Canada

Now
31 °F

Chilly.


Feels Like: 28 °F
Forecast: 29 / 32 °F
Wind: 3 mph from East

Location: Morden CDA CS

Current Time: Dec 22, 2014 at 11:10:40 AM

Latest Report: Dec 22, 2014 at 10:00 AM


Visibility: N/A

Pressure: 29.62 "Hg

Humidity: 100%

Dew point: 31 °F

Location of MordenLocation

Historic Weather in Morden — Graph

°F

Morden temperature yesterday

Maximum temperature yesterday: 31 °F (at 11:00 PM)
Minimum temperature yesterday: 25 °F (at 11:00 AM)
Average temperature yesterday: 28 °F

Past Weeks' High & Low Weather Summary

 TemperatureHumidityPressure
High38 °F (Dec 12, 2:00 PM)100% (Dec 13, 7:00 PM)30.52 "Hg (Dec 13, 7:00 PM)
Low-3 °F (Dec 9, 5:00 AM)71% (Dec 8, 6:00 AM)29.59 "Hg (Dec 21, 10:00 PM)
Average21 °F89%30.08 "Hg
* Reported Dec 7 9:00 AM — Dec 22 9:00 AM, Morden, Weather by CustomWeather, © 2014

Note: Actual official high and low records may vary slightly from our data, if they occured in-between our weather recording intervals... More about our weather records

Advertising

Morden weather history for previous 24 hours

 ConditionsComfort  
Time TempWeatherWind HumidityBarometerVisibility
9:00 AM
Dec 22
32 °FChilly.3 mph100%29.61 "HgN/A
8:00 AM32 °FChilly.3 mph100%29.61 "HgN/A
7:00 AM32 °FChilly.5 mph99%29.60 "HgN/A
6:00 AM32 °FChilly.7 mph99%29.59 "HgN/A
5:00 AM32 °FChilly.7 mph100%29.59 "HgN/A
4:00 AM31 °FChilly.5 mph98%29.59 "HgN/A
3:00 AM31 °FChilly.6 mph98%29.59 "HgN/A
2:00 AM31 °FChilly.6 mph100%29.59 "HgN/A
1:00 AM31 °FChilly.7 mph98%29.60 "HgN/A
12:00 AM31 °FChilly.7 mph97%29.60 "HgN/A
11:00 PM
Dec 21
31 °FChilly.9 mph96%29.59 "HgN/A
10:00 PM31 °FChilly.9 mph96%29.59 "HgN/A
9:00 PM30 °FChilly.10 mph98%29.59 "HgN/A
8:00 PM30 °FChilly.8 mph99%29.60 "HgN/A
7:00 PM30 °FChilly.7 mph99%29.60 "HgN/A
6:00 PM30 °FChilly.9 mph99%29.60 "HgN/A
5:00 PM29 °FChilly.9 mph98%29.60 "HgN/A
4:00 PM28 °FChilly.8 mph96%29.60 "HgN/A
3:00 PM27 °FChilly.8 mph93%29.60 "HgN/A
2:00 PM27 °FChilly.9 mph93%29.60 "HgN/A
1:00 PM27 °FChilly.7 mph91%29.62 "HgN/A
12:00 PM26 °FChilly.7 mph91%29.64 "HgN/A
11:00 AM25 °FCold.9 mph94%29.67 "HgN/A
Weather by CustomWeather, © 2014

See weather overviewHow to use our weather pages